GW7053 Weather Reports


time (UTC)temp
F
wind
direction
speed
knots
gust
knots
rain 1hr
in
rain 24hr
in
rain mn
in
humidity
%
barometer
mb
20260508025808 55 36 0.0 0.0 0.00 0.62 0.62 95 1014.8
20260508025306 55 36 0.0 0.0 0.00 0.62 0.62 95 1014.7
20260508024802 55 36 0.0 0.0 0.00 0.62 0.62 95 1014.9
20260508024259 55 36 0.0 0.0 0.00 0.62 0.62 95 1014.6
20260508023756 55 34 0.0 0.0 0.00 0.62 0.62 95 1014.7
20260508023253 55 38 0.0 0.0 0.00 0.62 0.62 94 1014.5
20260508022748 55 38 0.0 0.0 0.00 0.62 0.62 94 1014.3
20260508022245 55 38 0.0 0.0 0.00 0.62 0.62 94 1014.4
20260508021742 55 38 0.0 0.0 0.00 0.62 0.62 94 1014.6
20260508021237 55 38 0.0 0.0 0.00 0.62 0.62 94 1014.4
20260508020735 55 38 0.0 0.0 0.00 0.62 0.62 94 1014.5
20260508020232 55 38 0.0 0.0 0.00 0.62 0.62 94 1014.5
20260508015729 55 34 0.0 0.0 0.00 0.62 0.62 94 1014.6
20260508015227 55 29 0.0 0.0 0.00 0.62 0.62 94 1014.5
20260508014723 55 29 0.0 0.0 0.00 0.62 0.62 93 1014.3
20260508014220 55 29 0.0 0.0 0.00 0.62 0.62 93 1014.0
20260508013716 55 24 0.0 0.0 0.00 0.62 0.62 92 1013.8
20260508013212 55 24 0.0 0.0 0.00 0.62 0.62 92 1013.7
20260508012710 55 24 0.0 0.0 0.00 0.62 0.62 92 1013.4
20260508012207 55 24 0.0 0.0 0.00 0.62 0.62 92 1013.4
20260508011705 55 24 0.0 0.0 0.00 0.62 0.62 91 1013.7
20260508011202 55 24 0.0 0.0 0.00 0.62 0.62 91 1013.9
20260508010659 55 24 0.0 0.0 0.00 0.62 0.62 91 1013.9
20260508010157 55 23 0.0 0.0 0.00 0.62 0.62 90 1013.8
20260508005654 55 37 0.0 0.0 0.00 0.62 0.62 90 1013.9
20260508005150 56 37 0.0 0.0 0.00 0.62 0.62 91 1013.6
20260508004646 56 38 0.0 0.0 0.00 0.62 0.62 91 1013.7
20260508004142 56 34 0.0 0.0 0.00 0.62 0.62 91 1013.4
20260508003639 56 34 0.0 0.0 0.00 0.62 0.62 91 1013.3
20260508003137 56 38 0.0 0.0 0.00 0.62 0.62 91 1013.3
20260508002633 56 45 0.0 0.0 0.00 0.62 0.62 91 1013.4
20260508002131 56 7 0.0 0.0 0.00 0.62 0.62 91 1013.4
20260508001631 56 32 0.0 0.0 0.00 0.62 0.62 90 1013.5
20260508001128 56 35 0.0 0.9 0.00 0.62 0.62 91 1013.3
20260508000624 56 37 0.0 0.0 0.00 0.62 0.62 91 1012.9
20260508000122 56 39 0.0 0.9 0.00 0.62 0.62 91 1012.9
20260507235618 56 32 0.0 0.0 0.00 0.62 0.62 91 1012.9
20260507235116 56 34 0.0 0.0 0.00 0.62 0.62 91 1012.4
20260507234612 56 25 0.0 0.0 0.00 0.62 0.62 91 1012.7
20260507234108 56 24 0.0 0.0 0.00 0.62 0.62 90 1012.5
20260507233605 56 34 0.0 0.0 0.00 0.62 0.62 90 1012.4
20260507233104 56 23 0.0 0.9 0.00 0.62 0.62 88 1012.4
20260507232600 56 117 0.9 0.9 0.00 0.62 0.62 90 1012.2
20260507232058 56 71 0.0 1.7 0.00 0.62 0.62 89 1012.2
20260507231553 56 43 0.0 0.9 0.00 0.62 0.62 89 1012.3
20260507231051 56 62 0.0 0.9 0.00 0.62 0.62 90 1012.4
20260507230547 56 55 0.0 0.0 0.00 0.62 0.62 91 1012.4
20260507230044 56 27 0.0 0.9 0.00 0.62 0.62 90 1012.3
20260507225539 57 43 0.0 0.9 0.00 0.62 0.62 90 1012.4
20260507225036 57 42 0.0 0.9 0.00 0.62 0.62 90 1012.1
20260507224531 57 33 0.0 0.0 0.00 0.62 0.62 91 1012.0
20260507224028 57 34 0.0 0.0 0.00 0.62 0.62 90 1012.1
20260507223524 57 27 0.0 0.0 0.00 0.62 0.62 90 1011.9
20260507223022 57 354 0.9 0.9 0.00 0.62 0.62 91 1012.0
20260507222519 56 36 0.0 0.9 0.00 0.62 0.62 92 1012.1
20260507222015 57 43 0.0 0.0 0.00 0.62 0.62 92 1012.0
20260507221512 57 32 0.0 0.0 0.00 0.62 0.62 91 1012.1
20260507221008 57 20 0.0 1.7 0.00 0.62 0.62 91 1012.2
20260507220506 57 27 0.0 0.0 0.00 0.62 0.62 90 1012.4
20260507220003 57 33 0.0 1.7 0.00 0.62 0.62 90 1012.4
20260507215458 57 41 0.0 0.9 0.00 0.62 0.62 89 1012.4
20260507214957 57 42 0.0 0.9 0.00 0.62 0.62 91 1012.1
20260507214454 57 48 0.0 0.0 0.00 0.62 0.62 90 1012.1
20260507213949 57 29 0.0 0.9 0.00 0.62 0.62 89 1012.0
20260507213446 57 36 0.0 0.0 0.00 0.62 0.62 91 1012.1
20260507212943 57 19 0.0 0.9 0.00 0.62 0.62 90 1012.1
20260507212438 57 41 0.0 1.7 0.00 0.62 0.62 89 1012.0
20260507211936 57 39 0.0 0.0 0.00 0.62 0.62 89 1012.1
20260507211432 57 51 0.0 0.0 0.00 0.62 0.62 90 1012.1
20260507210929 57 35 0.0 0.9 0.00 0.62 0.62 89 1011.9
20260507210426 57 31 0.0 0.9 0.00 0.62 0.62 90 1011.8
20260507205923 57 55 0.9 1.7 0.00 0.62 0.62 91 1012.0
20260507205420 57 15 0.0 0.9 0.00 0.62 0.62 91 1011.6
20260507204916 57 45 0.0 1.7 0.00 0.62 0.62 92 1011.7
20260507204412 57 63 0.0 0.9 0.00 0.62 0.62 92 1011.6
20260507203910 57 30 0.0 0.0 0.00 0.62 0.62 92 1011.6
20260507203408 56 82 0.9 3.5 0.00 0.62 0.62 91 1011.7
20260507202904 57 45 0.0 0.0 0.00 0.62 0.62 92 1011.6
20260507202401 57 45 0.9 1.7 0.00 0.62 0.62 91 1011.5
20260507201856 57 49 0.0 0.9 0.00 0.62 0.62 91 1011.4
20260507201352 58 25 0.0 0.9 0.00 0.62 0.62 92 1011.2
20260507200848 58 15 0.9 1.7 0.00 0.62 0.62 93 1011.2
20260507200344 58 22 0.0 0.9 0.00 0.62 0.62 93 1011.4
20260507195840 58 51 0.0 0.9 0.00 0.62 0.62 93 1011.4
20260507195338 59 22 0.0 0.0 0.00 0.62 0.62 93 1011.5
20260507194835 59 42 0.0 1.7 0.00 0.62 0.62 93 1011.3
20260507194331 59 37 0.0 0.0 0.00 0.62 0.62 94 1010.9
20260507193828 59 50 0.9 1.7 0.00 0.62 0.62 94 1011.1
20260507193326 58 37 0.0 0.9 0.00 0.62 0.62 94 1011.1
20260507192821 58 34 0.0 0.9 0.00 0.62 0.62 94 1011.2
20260507192318 58 324 0.0 0.9 0.00 0.62 0.62 94 1011.5
20260507191814 58 32 0.0 0.9 0.00 0.62 0.62 94 1011.3
20260507191310 58 28 0.0 0.0 0.00 0.62 0.62 94 1011.5
20260507190808 59 38 0.0 0.9 0.00 0.62 0.62 94 1011.6
20260507190306 59 41 0.0 0.9 0.07 0.62 0.62 94 1011.2
20260507185805 59 30 0.0 0.0 0.07 0.62 0.62 94 1011.2
20260507185301 59 32 0.0 0.0 0.00 0.61 0.61 94 1010.9
20260507184758 59 23 0.0 0.9 0.00 0.61 0.61 94 1010.6
20260507184256 59 358 0.0 0.9 0.00 0.61 0.61 94 1011.2
20260507183753 59 81 0.9 0.9 0.00 0.61 0.61 93 1011.3
20260507183250 60 60 0.0 0.9 0.00 0.61 0.61 94 1011.5
20260507182748 60 30 0.0 0.9 0.00 0.61 0.61 94 1011.1
20260507182247 60 42 0.0 0.9 0.00 0.61 0.61 94 1010.5
20260507181745 60 1 0.0 0.9 0.00 0.61 0.61 94 1010.7
20260507181241 60 50 0.0 1.7 0.00 0.61 0.61 94 1010.4
20260507180737 60 55 0.9 0.9 0.05 0.61 0.61 94 1010.5
20260507180235 60 51 0.0 0.9 0.05 0.61 0.61 94 1010.6
20260507175730 60 38 0.0 1.7 0.07 0.60 0.60 93 1010.6
20260507175227 61 15 0.0 0.9 0.07 0.60 0.60 92 1011.3
20260507174725 63 5 0.0 1.7 0.00 0.59 0.59 92 1011.3
20260507174223 63 67 0.0 0.9 0.00 0.59 0.59 93 1011.3
20260507173720 64 34 0.0 0.0 0.05 0.59 0.59 92 1011.3
20260507173217 65 39 0.0 2.6 0.05 0.59 0.59 92 1010.7
20260507172713 67 66 0.9 2.6 0.00 0.58 0.58 90 1010.2
20260507172210 68 58 0.0 0.0 0.00 0.58 0.58 93 1010.1
20260507171710 69 33 0.0 0.0 0.00 0.58 0.58 93 1009.7
20260507171208 69 58 0.0 0.0 0.00 0.58 0.58 92 1009.5
20260507170704 69 41 0.0 0.0 0.00 0.58 0.58 92 1009.8
20260507170202 69 41 0.0 0.0 0.00 0.58 0.58 92 1009.7
20260507165657 70 41 0.0 0.9 0.00 0.58 0.58 92 1009.5
20260507165154 71 30 0.0 0.0 0.00 0.58 0.58 94 1009.7
20260507164649 70 41 0.0 0.0 0.00 0.58 0.58 93 1010.0
20260507164147 71 43 0.0 0.9 0.00 0.58 0.58 93 1010.3
20260507163644 71 41 0.0 0.9 0.00 0.58 0.58 93 1010.7
20260507163142 71 25 0.0 0.9 0.00 0.58 0.58 94 1010.8
20260507162637 70 26 0.9 0.9 0.07 0.58 0.58 94 1010.8
20260507162134 70 332 0.9 3.5 0.07 0.58 0.58 94 1010.9
20260507161630 70 267 0.0 0.9 0.00 0.57 0.57 95 1011.1
20260507161127 69 294 0.9 0.9 0.05 0.57 0.57 95 1011.0
20260507160623 69 28 0.0 0.9 0.05 0.57 0.57 94 1011.1
20260507160120 69 35 0.0 0.9 0.00 0.56 0.56 94 1011.3
20260507155615 69 37 0.0 0.9 0.00 0.56 0.56 94 1011.3
20260507155112 69 53 0.0 0.0 0.00 0.56 0.56 95 1011.2
20260507154609 69 31 0.0 0.9 0.00 0.56 0.56 94 1011.2
20260507154106 69 47 0.0 0.0 0.00 0.56 0.56 94 1010.8
20260507153603 69 49 0.0 0.0 0.00 0.56 0.56 95 1010.6
20260507153059 69 49 0.0 0.0 0.00 0.56 0.56 95 1010.6
20260507152555 69 59 0.0 0.0 0.00 0.56 0.56 95 1011.3
20260507152051 69 108 1.7 1.7 0.07 0.56 0.56 95 1010.9
20260507151548 69 65 0.0 0.9 0.07 0.56 0.56 95 1011.0
20260507151045 68 113 0.9 0.9 0.05 0.55 0.55 95 1011.1
20260507150542 68 42 0.0 0.0 0.05 0.55 0.55 95 1011.0
20260507150040 68 34 0.0 0.0 0.07 0.54 0.54 95 1011.3
20260507145540 68 36 0.0 0.9 0.07 0.54 0.54 95 1011.4
20260507145038 68 90 0.0 0.9 0.00 0.53 0.53 95 1011.2
20260507144534 68 21 0.0 0.0 0.05 0.53 0.53 95 1011.2
20260507144032 68 35 0.0 0.0 0.12 0.53 0.53 95 1011.4
20260507143529 68 15 0.0 0.9 0.14 0.52 0.52 95 1011.5
20260507143026 68 62 0.0 0.9 0.07 0.51 0.51 95 1011.6
20260507142522 68 118 0.9 1.7 0.00 0.50 0.50 95 1011.4
20260507142019 68 337 0.0 0.9 0.00 0.50 0.50 95 1011.3
20260507141515 68 80 0.9 0.9 0.05 0.50 0.50 95 1011.3
20260507141012 68 120 0.9 0.9 0.05 0.50 0.50 95 1011.4
20260507140508 68 20 0.0 0.9 0.24 0.49 0.49 95 1011.4
20260507140006 68 54 0.0 0.0 0.42 0.49 0.49 95 1011.6
20260507135502 68 23 0.0 0.0 0.59 0.44 0.44 95 1011.8
20260507134959 68 57 0.0 0.9 0.50 0.41 0.41 95 1011.9
20260507134456 68 339 1.7 2.6 0.12 0.34 0.34 95 1011.9
20260507133952 68 45 0.0 0.0 0.12 0.33 0.33 95 1011.9
20260507133448 68 78 0.0 0.9 0.12 0.32 0.32 95 1011.8
20260507132947 68 221 2.6 3.5 0.05 0.31 0.31 95 1011.6
20260507132442 68 358 0.0 1.7 0.00 0.30 0.30 95 1011.8
20260507131939 68 4 0.0 0.9 0.07 0.30 0.30 95 1011.7
20260507131436 68 31 0.0 0.0 0.07 0.30 0.30 95 1011.7
20260507130933 68 349 0.0 0.0 0.05 0.29 0.29 95 1011.9
20260507130431 68 68 0.0 0.9 0.07 0.28 0.28 95 1011.6
20260507125929 68 63 0.0 0.0 0.07 0.28 0.28 95 1011.6
20260507125426 67 16 0.0 0.0 0.00 0.27 0.27 95 1011.8
20260507124924 67 17 0.0 0.0 0.00 0.27 0.27 95 1011.8
20260507124419 67 20 0.0 0.9 0.00 0.27 0.27 95 1011.8
20260507123918 67 92 0.0 1.7 0.00 0.27 0.27 95 1011.9
20260507123415 67 56 0.0 0.0 0.00 0.27 0.27 95 1011.9
20260507122912 67 73 0.0 0.9 0.00 0.27 0.27 95 1011.8
20260507122407 67 69 0.0 1.7 0.00 0.27 0.27 95 1011.7
20260507121903 67 175 0.9 0.9 0.00 0.27 0.27 95 1011.6
20260507121358 67 121 0.0 0.9 0.00 0.27 0.27 95 1011.8
20260507120855 67 149 0.0 0.0 0.00 0.27 0.27 95 1011.7
20260507120352 67 264 0.9 1.7 0.00 0.27 0.27 95 1011.8
20260507115848 67 93 0.0 0.0 0.00 0.27 0.27 95 1012.1
20260507115344 67 356 0.0 0.0 0.05 0.27 0.27 95 1011.9
20260507114840 67 261 0.9 1.7 0.05 0.27 0.27 95 1012.0
20260507114337 67 107 1.7 1.7 0.07 0.26 0.26 95 1012.2
20260507113834 67 61 0.0 0.9 0.07 0.26 0.26 95 1012.3
20260507113331 67 39 0.0 0.9 0.00 0.25 0.25 95 1012.5
20260507112829 67 65 0.0 0.0 0.07 0.25 0.25 95 1012.1
20260507112326 67 47 0.0 0.9 0.07 0.25 0.25 95 1012.2
20260507111824 67 113 0.0 0.9 0.00 0.24 0.24 95 1012.2
20260507111320 67 29 0.0 0.9 0.00 0.24 0.24 95 1012.4
20260507110816 66 67 0.0 0.9 0.00 0.24 0.24 96 1012.4
20260507110313 66 70 0.0 0.9 0.00 0.24 0.24 96 1012.3
20260507105810 66 330 1.7 3.5 0.00 0.24 0.24 96 1011.9
20260507105307 66 54 0.0 0.9 0.00 0.24 0.24 96 1011.8
20260507104803 66 28 0.0 0.9 0.00 0.24 0.24 96 1011.7
20260507104259 66 36 0.0 1.7 0.00 0.24 0.24 96 1011.7
20260507103756 66 256 2.6 3.5 0.00 0.24 0.24 96 1011.8
20260507103252 66 89 0.9 0.9 0.00 0.24 0.24 96 1011.9
20260507102748 66 163 0.9 1.7 0.00 0.24 0.24 96 1011.7
20260507102245 66 89 0.0 0.0 0.00 0.24 0.24 96 1011.7
20260507101741 66 24 0.0 0.9 0.05 0.24 0.24 96 1011.7
20260507101236 66 46 0.0 0.9 0.05 0.24 0.24 96 1011.6
20260507100734 66 39 0.0 0.0 0.00 0.23 0.23 96 1011.8
20260507100232 66 105 0.9 0.9 0.07 0.23 0.23 96 1011.7
20260507095730 66 27 0.0 0.0 0.07 0.23 0.23 96 1011.7
20260507095226 66 17 0.0 0.0 0.00 0.22 0.22 96 1011.8
20260507094723 66 80 0.0 0.9 0.00 0.22 0.22 96 1011.8
20260507094220 66 35 0.0 0.0 0.00 0.22 0.22 96 1011.9
20260507093717 65 35 0.0 0.0 0.00 0.22 0.22 96 1011.8
20260507093215 65 19 0.0 0.0 0.00 0.22 0.22 96 1011.9
20260507092713 65 25 0.0 0.0 0.05 0.22 0.22 96 1011.6
20260507092209 65 4 0.0 0.0 0.05 0.22 0.22 96 1011.8
20260507091705 65 17 0.0 0.9 0.00 0.21 0.21 96 1011.7
20260507091202 65 40 0.0 0.0 0.00 0.21 0.21 96 1011.7
20260507090657 65 32 0.0 0.0 0.00 0.21 0.21 96 1011.9
20260507090154 65 31 0.0 0.0 0.07 0.21 0.21 96 1011.9
20260507085651 65 46 0.0 0.0 0.00 0.20 0.20 96 1011.9
20260507085148 65 31 0.0 0.0 0.00 0.20 0.20 96 1012.0
20260507084645 65 60 0.0 0.0 0.00 0.20 0.20 96 1012.2
20260507084142 65 70 0.0 0.0 0.00 0.20 0.20 96 1012.0
20260507083638 65 61 0.0 0.0 0.00 0.20 0.20 96 1012.4
20260507083135 65 59 0.0 0.0 0.00 0.20 0.20 96 1012.5
20260507082631 65 7 0.0 0.0 0.00 0.20 0.20 96 1012.6
20260507082128 65 12 0.0 0.0 0.00 0.20 0.20 96 1012.7
20260507081624 65 33 0.0 0.0 0.05 0.20 0.20 96 1012.9
20260507081121 65 30 0.0 0.9 0.05 0.20 0.20 96 1013.1
20260507080617 65 35 0.0 0.0 0.00 0.19 0.19 96 1012.6
20260507080114 65 81 0.0 0.9 0.07 0.19 0.19 96 1012.4
20260507075608 65 23 0.0 0.9 0.07 0.19 0.19 96 1012.4
20260507075105 65 45 0.0 0.9 0.05 0.18 0.18 96 1011.9
20260507074602 65 89 0.0 0.9 0.17 0.18 0.18 96 1012.6
20260507074101 65 23 0.0 0.0 0.05 0.16 0.16 96 1012.6
20260507073556 65 27 0.0 0.9 0.00 0.15 0.15 96 1013.1
20260507073053 65 7 0.0 0.9 0.00 0.15 0.15 96 1013.0
20260507072550 65 358 0.0 0.0 0.00 0.15 0.15 96 1013.2
20260507072047 65 40 0.0 0.0 0.00 0.15 0.15 96 1013.0
20260507071545 65 59 0.0 0.0 0.00 0.15 0.15 96 1012.7
20260507071041 65 59 0.0 0.0 0.00 0.15 0.15 96 1013.1
20260507070538 65 45 0.0 0.0 0.00 0.15 0.15 96 1012.7
20260507070035 66 84 0.0 0.9 0.00 0.15 0.15 95 1012.5
20260507065531 66 91 0.0 0.0 0.00 0.15 0.15 95 1013.0
20260507065029 66 36 0.0 0.0 0.00 0.15 0.15 95 1013.0
20260507064527 66 36 0.0 0.0 0.00 0.15 0.15 95 1013.1
20260507064025 66 41 0.0 0.0 0.00 0.15 0.15 95 1013.4
20260507063522 66 15 0.0 0.0 0.00 0.15 0.15 95 1013.6
20260507063019 66 66 0.0 0.0 0.00 0.15 0.15 95 1013.6
20260507062515 66 33 0.0 0.0 0.00 0.15 0.15 95 1013.6
20260507062014 66 254 0.9 0.9 0.00 0.15 0.15 95 1013.5
20260507061511 66 110 0.0 0.9 0.00 0.15 0.15 95 1013.4
20260507061009 66 86 0.9 0.9 0.00 0.15 0.15 95 1013.8
20260507060506 66 35 0.0 0.0 0.00 0.15 0.15 95 1013.9
20260507060003 66 38 0.0 0.0 0.00 0.15 0.15 94 1013.8
20260507055458 66 40 0.0 0.0 0.00 0.15 0.15 94 1013.9
20260507054954 66 32 0.0 0.0 0.00 0.15 0.15 94 1014.0
20260507054450 66 29 0.0 0.0 0.00 0.15 0.15 94 1013.6
20260507053948 66 8 0.0 0.0 0.00 0.15 0.15 94 1013.7
20260507053446 66 248 0.9 1.7 0.00 0.15 0.15 93 1012.9
20260507052944 66 210 0.0 0.9 0.00 0.15 0.15 93 1012.9
20260507052441 66 90 0.9 1.7 0.07 0.15 0.15 93 1013.1
20260507051938 66 110 0.9 1.7 0.12 0.14 0.14 92 1013.2
20260507051435 66 234 0.9 1.7 0.19 0.14 0.14 92 1013.2
20260507050932 67 220 3.5 5.2 0.19 0.12 0.12 92 1013.4
20260507050429 67 217 1.7 2.6 0.07 0.10 0.10 92 1013.9
20260507045926 67 2 0.0 1.7 0.05 0.09 0.09 92 1014.2
20260507045422 67 126 0.9 0.9 0.12 0.09 0.09 91 1014.6
20260507044919 67 33 0.0 0.9 0.12 0.08 0.08 91 1014.8
20260507044416 68 359 0.0 2.6 0.28 0.07 0.07 90 1015.1
20260507043912 68 17 0.9 1.7 0.24 0.06 0.06 90 1015.3
20260507043409 68 12 0.0 3.5 0.07 0.02 0.02 88 1015.2
20260507042905 69 16 0.0 1.7 0.14 0.02 0.02 87 1015.0
20260507042402 69 33 0.9 2.6 0.07 0.01 0.01 85 1015.1
20260507041857 70 328 3.5 6.1 0.00 0.00 0.00 83 1015.0
20260507041354 70 330 0.9 0.9 0.00 0.00 0.00 83 1015.1
20260507040852 69 35 0.0 1.7 0.00 0.00 0.00 83 1014.6
20260507040347 69 29 0.0 0.9 0.05 0.00 0.00 83 1014.6
20260507035844 70 41 0.0 0.9 0.05 0.20 0.20 83 1014.4
20260507035339 70 19 0.0 0.0 0.00 0.19 0.19 82 1014.3
20260507034837 71 334 0.0 0.9 0.00 0.19 0.19 80 1014.1
20260507034334 71 6 0.0 0.9 0.00 0.19 0.19 78 1013.8
20260507033832 72 47 0.0 0.9 0.00 0.19 0.19 76 1013.5
20260507033330 72 91 0.9 0.9 0.00 0.19 0.19 74 1013.7
20260507032826 73 35 0.0 0.9 0.00 0.19 0.19 73 1014.0
20260507032322 73 10 0.9 0.9 0.00 0.19 0.19 72 1014.3
20260507031819 73 336 1.7 2.6 0.00 0.19 0.19 72 1014.2
20260507031316 72 280 0.9 1.7 0.00 0.19 0.19 72 1014.2
20260507030812 72 157 1.7 1.7 0.00 0.19 0.19 72 1014.2
20260507030310 72 308 0.0 1.7 0.00 0.19 0.19 73 1014.0